Last 6 Hours

AM-Roundhouse Top 7880'

15 Minute Data | America/Los_Angeles
as of 8/31/26 4:32 PM PDT
Date & Time Temp (°F) RH (%) Dew Pt (°F) Wet Bulb (°F) Wind Dir (°) Wind Spd (mph) Wind Gust (mph) WindChill (°F)
8/31/26 - 1630 60.9 43 38.4 48.3 SSE | 147 9.1 25.3 61.1
8/31/26 - 1615 61.3 43 38.4 48.5 SSE | 149 9.1 20.2 61.7
8/31/26 - 1600 61.8 42 38.6 48.8 S | 175 8.6 20.8 61.9
8/31/26 - 1545 61.9 42 38.3 48.7 ESE | 123 8.0 17.7 62.0
8/31/26 - 1530 62.0 41 38.3 48.8 ESE | 103 8.4 22.2 62.7
8/31/26 - 1515 62.8 40 38.0 48.9 SE | 127 10.6 23.0 63.4
8/31/26 - 1500 63.3 38 37.3 48.9 SE | 126 7.0 20.4 63.5
8/31/26 - 1445 63.2 37 36.5 48.5 SSE | 168 8.9 22.9 63.6
8/31/26 - 1430 63.8 35 35.4 48.3 SSE | 148 7.3 18.9 64.2
8/31/26 - 1415 64.3 34 35.2 48.4 ESE | 114 6.3 17.4 64.1
8/31/26 - 1400 64.3 32 34.1 48.0 E | 90 6.7 19.5 64.9
8/31/26 - 1345 64.7 31 33.7 48.0 E | 100 4.8 14.8 65.0
8/31/26 - 1330 64.5 32 33.8 48.0 ESE | 118 4.6 12.2 64.6
8/31/26 - 1315 64.4 33 34.4 48.1 E | 97 4.3 13.4 64.6
8/31/26 - 1300 64.8 32 34.5 48.4 SSE | 151 4.8 18.3 64.4
8/31/26 - 1245 63.8 34 35.0 48.1 SSE | 165 4.7 13.4 64.4
8/31/26 - 1230 64.5 34 35.6 48.6 ESE | 108 5.1 15.7 63.6
8/31/26 - 1215 63.4 34 34.6 47.8 SSE | 161 7.0 20.6 64.0
8/31/26 - 1200 64.1 33 34.5 48.1 S | 170 9.1 20.4 63.9
8/31/26 - 1145 63.7 33 34.5 47.9 S | 186 9.0 19.8 63.7
8/31/26 - 1130 63.9 34 35.2 48.3 SSE | 159 7.2 17.9 63.5
8/31/26 - 1115 63.6 34 34.7 47.9 S | 186 7.3 16.2 63.8
8/31/26 - 1100 63.9 32 33.2 47.5 S | 178 8.6 18.2 64.2
8/31/26 - 1045 64.1 30 32.0 47.2 SSW | 192 10.2 17.8 63.8
Max 64.8 43 38.6 48.9 - 10.6 25.3 65.0
Avg 63.5 36 35.6 48.2 - 7.4 18.6 63.6
Min 60.9 30 32.0 47.2 - 4.3 12.2 61.1